Home > Weather > Vieux Fort > Past weeks

Flag for Saint Lucia Weather for the Past 2 Weeks in Vieux Fort, Saint Lucia

Now
81 °F

Passing clouds.


Feels Like: 85 °F
Forecast: 81 / 87 °F
Wind: 15 mph from East

Location: Hewanorra International Airport

Current Time: May 5, 2016 at 10:03:35 PM

Latest Report: May 5, 2016 at 9:00 PM


Visibility: N/A

Pressure: 29.95 "Hg

Humidity: 79%

Dew Point: 73 °F

Location of Vieux FortLocation

Historic Weather in Vieux Fort — Graph

°F

Vieux Fort Temperature Yesterday

Maximum temperature yesterday: 88 °F (at 12:00 PM)
Minimum temperature yesterday: 81 °F (at 3:00 AM)
Average temperature yesterday: 83 °F

High & Low Weather Summary for the Past Weeks

 TemperatureHumidityPressure
High90 °F (Apr 28, 12:00 PM)100% (May 2, 9:00 AM)30.04 "Hg (May 2, 9:00 AM)
Low75 °F (May 2, 9:00 AM)58% (May 1, 10:00 AM)29.83 "Hg (Apr 25, 3:00 PM)
Average83 °F75%29.93 "Hg
* Reported Apr 20 9:00 PM — May 5 9:00 PM, Vieux Fort, Weather by CustomWeather, © 2016

Note: Actual official high and low records may vary slightly from our data, if they occured in-between our weather recording intervals... More about our weather records

Advertising

Vieux Fort Weather History for the Previous 24 Hours

Scroll right to see more
 ConditionsComfort  
Time TempWeatherWind HumidityBarometerVisibility
9:00 PM
Thu, May 5
81 °FPassing clouds.15 mph79%29.95 "HgN/A
8:30 PM81 °FPassing clouds.13 mph79%29.95 "HgN/A
7:00 PM81 °FSprinkles. Passing clouds.16 mph89%29.92 "HgN/A
6:00 PM81 °FPartly sunny.14 mph84%29.92 "HgN/A
5:00 PM84 °FScattered clouds.16 mph74%29.89 "HgN/A
4:00 PM86 °FScattered clouds.16 mph75%29.89 "HgN/A
3:00 PM86 °FBroken clouds.17 mph75%29.92 "HgN/A
2:00 PM86 °FBroken clouds.21 mph75%29.92 "HgN/A
1:00 PM88 °FPartly sunny.20 mph70%29.95 "HgN/A
12:00 PM88 °FPassing clouds.20 mph66%29.98 "HgN/A
11:00 AM84 °FPartly sunny.22 mph74%29.98 "HgN/A
10:00 AM84 °FPartly sunny.18 mph79%30.01 "HgN/A
9:00 AM86 °FPassing clouds.15 mph70%29.98 "HgN/A
8:00 AM84 °FPassing clouds.16 mph74%29.98 "HgN/A
7:00 AM82 °FPartly sunny.15 mph79%29.95 "HgN/A
6:00 AM81 °FPassing clouds.12 mph79%29.95 "HgN/A
5:00 AM81 °FPassing clouds.14 mph79%29.92 "HgN/A
4:00 AM81 °FPassing clouds.12 mph79%29.92 "HgN/A
3:00 AM81 °FPassing clouds.13 mph79%29.92 "HgN/A
2:00 AM81 °FPassing clouds.12 mph79%29.95 "HgN/A
1:00 AM81 °FPassing clouds.14 mph79%29.95 "HgN/A
12:00 AM81 °FPassing clouds.15 mph84%29.98 "HgN/A
11:00 PM
Wed, May 4
81 °FPassing clouds.17 mph84%29.98 "HgN/A
10:00 PM81 °FPassing clouds.17 mph84%29.98 "HgN/A
Weather by CustomWeather, © 2016

See weather overviewHow to use our weather pages